sat.trackr.live / text

‹ back to catalog

STARLINK-5177

NORAD 54090 · 2022-136AR

PAYLOAD ACTIVE UNKNOWN

§ Identity

Operator
Country
US
Launch date
2022-10-20
Launch site
AFETR
Launch vehicle
Mass (kg)
RCS (m²)

Purposes: comms

External: N2YO · Heavens-Above · Gunter

§ Orbital elements

Epoch: 2026-05-24T20:30:22.903200Z

Period
95.44 min
Inclination
53.2147°
Eccentricity
0.0001096
Mean motion
15.08833605 rev/d
Perigee alt
539.0 km
Apogee alt
540.5 km
Semi-major
6,917.9 km
B*
-7.1594e-5
RAAN
352.1108°
Arg perigee
94.6576°
Mean anomaly
265.4541°
Rev number
19,848

§ Raw data

STARLINK-51771 54090U 22136AR  26144.85443175 -.00001427  00000+0 -71594-4 0  99912 54090  53.2147 352.1108 0001096  94.6576 265.4541 15.08833605198481

JSON: /api/v1/satellites/54090 · /tle

For live sub-satellite position, see the globe view (requires WebGL).

§ Visibility from observer

Set your observer location to see the next 7 days of passes ≥ 10°. The values pass through the URL so the page stays shareable.

No JS? Fill the form by hand. The geolocation button needs JavaScript.